Powrót do katalogu

RIGIDSPHERE 2

LCS 4

AktywnyMilitariaPO
NORAD 5398·PAYLOAD·🇺🇸 United States

Wystrzelony Aug 7, 1971 z Vandenberg Space Force Base

Loading…

Następne Przeloty (najbliższe 24 godziny)

TLE

ŚwieżeSource: Space-Track

Epoka: Sep 14, 2026, 14:44 UTC

1 05398U 71067E   26257.61455993  .00000418  00000-0  13025-3 0  9997
2 05398  87.6213 313.9896 0057595 297.0262  62.5065 14.37955941886736

Śledź RIGIDSPHERE 2 w czasie rzeczywistym z AllMySat

Download on the App Store